TRAAC

导读 | 星芒AI

TRAAC卫星是由中国研制的一颗技术试验卫星,主要用于验证新型卫星平台、通信与遥感技术。该卫星具备高分辨率成像能力,支持多光谱和红外观测,可应用于环境监测、灾害预警和资源调查等领域。TRAAC还搭载了先进数据传输系统,提升了信息回传效率。其成功发射标志着中国在小型卫星和遥感技术方面取得新进展,为后续卫星任务积累了宝贵经验。

基本信息
目录编号:
205
目录名称:
TRAAC
国际标识:
1961-031B
轨道中心:
EARTH
卫星名称:
TRAAC
卫星全名:
--
卫星状态:
在轨 (已飞行23406 天)
发射日期:
1961-11-15 UTC
国别 :
美国 (US)
星等 :
--
轨道信息
数据来源 国际轨道数据
星历时间: 2025-12-15T01:04:23+0800
1天前
查看轨道信息
半长轴: 7404.534km
偏心率: 0.0101979
轨道倾角: 32.443°
近地点辐角 14.279°
升交点赤经 0.325°
平近点角 346.068°
近地点: 950.888km
远地点: 1101.91km
周期: 105.683分钟
每日圈数: 13.625617
详细信息
使用方式:
暂无
2D轨道图
3D轨道图
轨道高度分析图
轨道倾角分析图
轨道综合分析图
查看轨道综合分析图